Location: Blanton
(30.8302°N, 83.1188°W)
Time: 15:19:29
(UTC+00:00)

Hubble Space Telescope - Visible Passes

Search period start: 01 December 2021 00:00
Search period end: 11 December 2021 00:00
Orbit: 534 x 538 km, 28.5° (Epoch: 30 November)

Date Brightness Start Highest point End Pass type
(mag) Time Alt. Az. Time Alt. Az. Time Alt. Az.
01 Dec 1.0 10:25:24 56° SSW 10:25:30 56° S 10:29:33 10° ESE visible
02 Dec 1.5 10:14:56 47° SSE 10:14:56 47° SSE 10:18:20 10° ESE visible
03 Dec 2.2 10:04:28 33° SE 10:04:28 33° SE 10:07:07 10° ESE visible
03 Dec 2.7 11:41:01 10° WSW 11:43:57 19° SSW 11:46:52 10° SSE visible
04 Dec 2.9 09:54:01 23° SE 09:54:01 23° SE 09:55:51 10° ESE visible
04 Dec 3.0 11:30:17 10° WSW 11:32:43 15° SSW 11:35:07 10° SSE visible
05 Dec 3.4 09:43:34 16° SE 09:43:34 16° SE 09:44:33 10° SE visible
05 Dec 3.1 11:19:52 10° SW 11:21:27 12° SSW 11:23:02 10° S visible
06 Dec 3.9 09:33:09 10° SE 09:33:09 10° SE 09:33:11 10° SE visible
